Location: Newark
(53.2933°N, 6.3959°W)
Time: 11:04:10
(UTC+00:00)

Envisat - Pass Details

Date: 27 February 2020
Orbit: 764 x 766 km, 98.1° (Epoch: 07 April)

Event Time Altitude Azimuth Distance (km) Brightness Sun altitude
Rises 18:44:19 0° 188° (S) 3,223 6.4 -7.6°
Reaches altitude 10° 18:46:46 10° 197° (SSW) 2,302 5.8 -7.9°
Maximum altitude 18:51:27 37° 264° (W) 1,187 4.8 -8.6°
Drops below altitude 10° 18:56:11 10° 332° (NNW) 2,318 5.9 -9.3°
Sets 18:58:40 0° 341° (NNW) 3,249 6.5 -9.7°
